sat.trackr.live / text

‹ back to catalog

STARLINK-6195

NORAD 56902 · 2023-083AC

PAYLOAD ACTIVE UNKNOWN

§ Identity

Operator
Country
US
Launch date
2023-06-12
Launch site
AFETR
Launch vehicle
Mass (kg)
RCS (m²)

Purposes: comms

External: N2YO · Heavens-Above · Gunter

§ Orbital elements

Epoch: 2026-09-20T09:48:43.515072Z

Period
94.27 min
Inclination
43.0047°
Eccentricity
0.0001863
Mean motion
15.27574576 rev/d
Perigee alt
481.8 km
Apogee alt
484.3 km
Semi-major
6,861.2 km
B*
-3.9492e-6
RAAN
51.3789°
Arg perigee
270.8334°
Mean anomaly
89.2305°
Rev number
18,168

§ Raw data

STARLINK-61951 56902U 23083AC  26263.40883698 -.00000371  00000+0 -39492-5 0  99972 56902  43.0047  51.3789 0001863 270.8334  89.2305 15.27574576181680

JSON: /api/v1/satellites/56902 · /tle

For live sub-satellite position, see the globe view (requires WebGL).

§ Visibility from observer

Set your observer location to see the next 7 days of passes ≥ 10°. The values pass through the URL so the page stays shareable.

No JS? Fill the form by hand. The geolocation button needs JavaScript.